Location: Arbon
(43.0005°N, 0.7472°E)
Time: 08:32:07
(UTC+00:00)

Vanguard 2 Rocket - Pass Details

Date: 05 December 2020
Orbit: 554 x 3326 km, 32.9° (Epoch: 28 January)

Event Time Altitude Azimuth Distance (km) Brightness Sun altitude
Rises 13:47:17 0° 276° (W) 6,916 11.7 19.0°
Reaches altitude 10° 13:57:14 10° 250° (WSW) 5,224 11.7 18.1°
Maximum altitude 14:00:54 11° 235° (SW) 4,795 12.1 17.7°
Drops below altitude 10° 14:04:13 10° 220° (SW) 4,582 12.9 17.4°
Sets 14:11:00 0° 189° (S) 4,835 11.8 16.7°
